date,batt_volt,AirTemp_C,Solar_kW,RH,Manual_BP,StationID,WS_ms,PTemp,WS_15min_max,Prog_Sig,Solar_Raw,Bar_mbar,Solar_MJ,Max_WS_2min,Pressure_Raw,Rain_mm,WD_15min_ave,Max_AirTemp_1min,WindDir,WS_15min_med,WS_15min_ave,Elevation_Correction
2023-01-01T00:04:53Z,13.3809,7.405891,0.0,95.2187,0,1156,1.3916,9.459255,2.0972,43690,0.0,1010.081,0.0,1.705,1008.281,0,90.5442808957,7.575,99.24108,1.5778,1.57730379494,1.80078
2023-01-01T00:19:56Z,13.39195,7.270252,0.0,95.48998,0,1156,1.3524,9.145222,1.9208,43690,0.0,1010.081,0.0,1.921,1008.281,0,89.4511481777,7.406,106.0305,1.3524,1.29463764294,1.80078
2023-01-01T00:34:56Z,13.40299,7.405891,0.0,95.79517,0,1156,2.156,8.901226,2.7636,43690,0.0,1010.081,0.0,2.548,1008.281,0,97.6095421391,7.372,91.05526,1.9502,1.94754823529,1.80078
2023-01-01T00:49:57Z,13.40314,7.544022,0.0,95.96975,0,1156,2.4892,8.722744,2.9988,43690,0.0,1010.081,0.0,2.47,1008.281,0,92.1960452204,7.579001,98.90919,2.205,2.10803764647,1.80078
2023-01-01T01:04:58Z,13.4044,7.208095,0.0,96.17971,0,1156,3.038,8.634632,3.0576,43690,0.0,1010.301,0.0,3.038,1008.5,0,93.6904403078,7.344,94.99102,2.6068,2.51410352941,1.80078
2023-01-01T01:19:54Z,13.41053,6.972534,0.0,96.31914,0,1156,3.5868,8.54652,3.9984,43690,0.0,1010.301,0.0,3.175,1008.5,0,93.1266121484,7.108,96.1265,3.136,3.14771360947,1.80078
2023-01-01T01:34:56Z,13.41631,6.566002,0.0,96.45573,0,1156,2.8028,8.345447,3.7828,43690,0.0,1010.301,0.0,3.254,1008.5,0,88.8398773129,6.668,97.42774,2.8616,2.71932705824,1.80078
2023-01-01T01:49:57Z,13.41631,7.822254,0.0,96.89942,0,1156,0.9604,8.191822,4.2728,43690,0.0,1010.301,0.0,2.528,1008.5,0,106.455958889,8.229999,211.3805,1.7248,1.79489882059,1.80078
2023-01-01T02:04:58Z,13.41115,8.500622,0.0,97.13691,0,1156,1.9992,8.279926,3.332,43690,0.0,1009.378,0.0,3.332,1007.578,0,213.877716879,8.53,178.4141,1.7934,1.84666587941,1.80078
2023-01-01T02:19:59Z,13.39989,8.66885,0.0,97.13421,0,1156,0.9799999,8.54652,3.0184,43690,0.0,1009.378,0.0,2.156,1007.578,0,200.272207074,8.769999,211.5192,1.666,1.67337881941,1.80078
2023-01-01T02:34:59Z,13.39343,8.222313,0.0,97.05503,0,1156,1.8228,8.767926,2.058,43690,0.0,1009.378,0.0,1.823,1007.578,0,230.347058421,8.36,231.6712,1.2544,1.26800469824,1.80078
2023-01-01T02:49:59Z,13.39228,8.390827,0.0,97.2225,0,1156,1.3916,8.901226,1.8228,43690,0.0,1009.378,0.0,1.744,1007.578,0,224.036713747,8.46,225.6712,1.1956,1.05021411176,1.80078
2023-01-01T03:04:59Z,13.39196,8.525002,0.0,97.35518,0,1156,1.666,8.98933,3.43,43690,0.0,1008.945,0.0,3.175,1007.144,0,248.619110229,8.63,246.153,1.9796,2.06434117529,1.80078
2023-01-01T03:19:57Z,13.38643,8.287567,0.0,97.32115,0,1156,2.1168,9.079701,2.8616,43690,0.0,1008.945,0.0,2.862,1007.144,0,233.300120518,8.389999,226.5307,1.9208,1.92520710059,1.80078
2023-01-01T03:35:00Z,13.38643,8.355389,0.0,97.42288,0,1156,1.0388,9.100041,2.1168,43690,0.0,1008.945,0.0,1.862,1007.144,0,239.843418842,8.36,243.9376,1.6072,1.49294352059,1.80078
2023-01-01T03:49:58Z,13.38643,8.389298,0.0,97.52462,0,1156,2.1952,9.122631,2.6068,43690,0.0,1008.945,0.0,2.509,1007.144,0,251.276034762,8.519999,243.6246,1.47,1.47463904793,1.80078
2023-01-01T04:05:01Z,13.38643,8.524937,0.0,97.52462,0,1156,1.764,9.145222,2.7832,43690,0.0,1008.21,0.0,1.901,1006.409,0,249.559317749,8.59,251.04,1.6856,1.65608470471,1.80078
2023-01-01T04:20:00Z,13.38643,8.558846,0.0,97.62634,0,1156,1.274,9.19041,2.352,43690,0.0,1008.21,0.0,1.666,1006.409,0,261.037091114,8.63,244.2747,1.2348,1.2947597568,1.80078
2023-01-01T04:34:58Z,13.38091,8.491028,0.0,97.66025,0,1156,0.0196,9.235592,1.5484,43690,0.0,1008.21,0.0,0.51,1006.409,0,236.001028583,8.66,177.3195,0.6664,0.581737269231,1.80078
2023-01-01T04:50:03Z,13.38091,8.558846,0.0,97.66025,0,1156,0.0196,9.301113,0.5096,43690,0.0,1008.21,0.0,0.451,1006.409,0,199.359256499,8.729999,204.3808,0.0196,0.05684,1.80078
2023-01-01T05:05:02Z,13.38091,8.694485,0.0,97.72806,0,1156,0.0196,9.346294,0.0196,43690,0.0,1006.257,0.0,0.02,1004.456,0,214.102091113,8.76,223.8583,0.0196,0.0196,1.80078
2023-01-01T05:20:02Z,13.38091,8.864033,0.0,97.79589,0,1156,0.0196,9.391483,0.6272,43690,0.0,1006.257,0.0,0.02,1004.456,0,27.7960328397,9.03,29.22822,0.0196,0.070049704142,1.80078
2023-01-01T05:35:01Z,13.37538,8.592754,0.0,97.69416,0,1156,0.3724,9.502186,0.6468,43690,0.0,1006.257,0.0,0.568,1004.456,0,114.778924453,8.66,158.6365,0.0196,0.0910414201183,1.80078
2023-01-01T05:50:00Z,13.38091,8.151928,0.0,97.69416,0,1156,1.3132,9.479595,1.8032,43690,0.0,1006.257,0.0,1.744,1004.456,0,123.737453903,8.29,99.67448,0.4312,0.643784613609,1.80078
2023-01-01T06:05:05Z,13.38091,8.08411,0.0,97.72806,0,1156,1.372,9.391483,1.9012,43690,0.0,1004.873,0.0,1.823,1003.072,0,96.1527945117,8.22,93.77586,1.3426,1.34963293765,1.80078
2023-01-01T06:20:05Z,13.38091,8.151928,0.0,97.79589,0,1156,1.372,9.301113,1.666,43690,0.0,1004.873,0.0,1.666,1003.072,0,95.1105808145,8.22,95.41303,1.3132,1.29659764588,1.80078
2023-01-01T06:35:05Z,13.38091,8.118019,0.0,97.82979,0,1156,2.45,9.258182,2.5872,43690,0.0,1004.873,0.0,2.352,1003.072,0,93.16136114,8.25,96.90574,1.4896,1.57076705765,1.80078
2023-01-01T06:50:04Z,13.38643,7.846741,0.0,97.76198,0,1156,3.5084,9.19041,3.5672,43690,0.0,1004.873,0.0,3.548,1003.072,0,94.12472463,8.05,85.9271,2.6852,2.78343058824,1.80078
2023-01-01T07:05:03Z,13.39747,6.863358,0.0,97.69416,0,1156,3.9004,8.96674,4.312,43690,0.0,1004.629,0.0,4.057,1002.828,0,91.4144196491,6.897,82.84538,3.822,3.75715974843,1.80078
2023-01-01T07:20:02Z,13.40323,6.762322,0.0,97.79734,0,1156,3.7632,8.634632,4.508,43690,0.0,1004.629,0.0,4.43,1002.828,0,90.8763261349,6.796001,86.5303,3.9984,3.96859408284,1.80078
2023-01-01T07:35:06Z,13.41052,6.633064,0.0,97.84465,0,1156,3.822,8.368038,4.41,43690,0.0,1004.629,0.0,4.332,1002.828,0,91.0112824216,6.735,84.2305,3.8612,3.81208470588,1.80078
2023-01-01T07:50:04Z,13.41631,6.600452,0.0,97.91522,0,1156,4.116,8.146633,4.5864,43690,0.0,1004.629,0.0,4.371,1002.828,0,86.4720364396,6.634,95.69508,3.528,3.58622011834,1.80078
2023-01-01T08:05:07Z,13.42344,6.775379,0.0,97.99425,0,1156,6.0368,8.015598,6.0368,43690,0.0,1002.089,0.0,5.821,1000.288,0,92.2963049065,6.911,93.15322,4.5276,4.54593176471,1.80078
2023-01-01T08:20:05Z,13.41849,6.743313,0.0,98.06598,0,1156,3.9592,7.927486,6.272,43690,0.0,1002.089,0.0,6.252,1000.288,0,90.9700903783,6.845,98.28681,5.4292,5.36390532544,1.80078
2023-01-01T08:35:08Z,13.41859,6.77747,0.0,98.10039,0,1156,4.7236,7.904896,6.958,43690,0.0,1002.089,0.0,5.841,1000.288,0,93.0884636859,6.981001,93.2778,5.635,5.62116469412,1.80078
2023-01-01T08:50:06Z,13.42411,6.54002,0.0,98.13431,0,1156,4.3708,7.861965,6.8012,43690,0.0,1002.089,0.0,5.351,1000.288,0,91.0117770279,6.642,86.79917,4.9588,4.98106745562,1.80078
2023-01-01T09:05:09Z,13.42411,6.81139,0.0,98.20216,0,1156,5.0176,7.816784,5.4488,43690,0.0,1001.299,0.0,5.41,999.4979,0,90.1414382242,6.913,95.0841,4.4492,4.38048470588,1.80078
2023-01-01T09:20:08Z,13.42964,7.184525,0.0,98.33785,0,1156,5.2528,7.839374,6.2524,43690,0.0,1001.299,0.0,5.684,999.4979,0,92.3429400299,7.286,96.96267,4.6746,4.60450117647,1.80078
2023-01-01T09:35:07Z,13.41859,7.421974,0.0,98.37177,0,1156,3.0772,7.950077,5.8016,43690,0.0,1001.299,0.0,4.43,999.4979,0,94.5255157813,7.422001,104.5733,3.92,3.94582588235,1.80078
2023-01-01T09:50:06Z,13.41259,7.927803,0.0,98.43346,0,1156,2.548,8.126301,4.8216,43690,0.0,1001.299,0.0,3.685,999.4979,0,94.5731604088,8.03,95.27083,3.1752,3.12135764706,1.80078
2023-01-01T10:05:10Z,13.40001,8.432995,0.0,98.59574,0,1156,2.4304,8.368038,4.41,43690,0.0,998.9681,0.0,4.41,997.1673,0,93.7607294722,8.47,109.0139,2.9988,2.9975391807,1.80078
2023-01-01T10:20:08Z,13.39423,8.465401,0.0,98.6605,0,1156,3.0772,8.634632,3.9004,43690,0.0,998.9681,0.0,3.43,997.1673,0,96.7289591363,8.599999,86.59198,2.107,2.13559294,1.80078
2023-01-01T10:35:08Z,13.39249,8.189381,0.0,98.61698,0,1156,2.8224,8.856037,4.4296,43690,0.0,998.9681,0.0,4.214,997.1673,0,93.7046455678,8.29,106.3995,3.4496,3.35736470588,1.80078
2023-01-01T10:50:06Z,13.39197,7.711891,0.0,98.47571,0,1156,3.5084,8.901226,4.5472,43690,0.0,998.9681,0.0,4.547,997.1673,0,93.4994080282,7.814001,109.3308,3.6652,3.61301065089,1.80078
2023-01-01T11:05:09Z,13.39203,7.677853,0.0,98.57718,0,1156,3.1164,8.856037,4.3316,43690,0.0,998.9327,0.0,3.626,997.1319,0,92.2607242943,7.678001,88.98599,3.234,3.16528470588,1.80078
2023-01-01T11:20:06Z,13.39766,7.611175,0.0,98.57955,0,1156,3.234,8.767926,4.214,43690,0.0,998.9327,0.0,3.371,997.1319,0,94.9322253834,7.713,87.68798,3.038,3.00599053254,1.80078
2023-01-01T11:35:09Z,13.39829,7.646721,0.0,98.61685,0,1156,4.018,8.722744,4.1552,43690,0.0,998.9327,0.0,4.155,997.1319,0,92.8142799605,7.715,97.87586,3.381,3.33695764706,1.80078
2023-01-01T11:50:06Z,13.39865,7.341758,0.0004824814,98.58345,0,1156,4.4688,8.677555,5.0372,43690,0.0337737,998.9327,2.412407e-06,4.978,997.1319,0,90.3766979995,7.613,93.51829,4.0768,3.99515266272,1.80078
2023-01-01T12:05:10Z,13.405,7.682446,0.0009649629,98.62059,0,1156,3.9788,8.634632,5.194,43690,0.0675474,996.8686,4.824814e-06,5.155,995.0678,0,91.6172103821,7.649,94.26778,4.508,4.47248941176,1.80078
2023-01-01T12:20:08Z,13.40504,7.650314,0.002412407,98.72603,0,1156,4.5472,8.612042,5.1744,43690,0.1688685,996.8686,1.206204e-05,5.174,995.0678,0,91.2862561187,7.819,94.05459,4.6452,4.53838579882,1.80078
2023-01-01T12:35:11Z,13.40516,7.683224,0.005307296,98.75786,0,1156,4.9,8.634632,5.4684,43690,0.3715107,996.8686,2.653648e-05,4.939,995.0678,0,90.9833399988,7.683001,91.04274,4.5864,4.50477176471,1.80078
2023-01-01T12:50:09Z,13.3996,7.547382,0.004342333,98.75747,0,1156,5.0764,8.634632,5.096,43690,0.3039633,996.8686,2.171167e-05,4.978,995.0678,0,95.3077211395,7.750001,93.66697,3.4104,3.43231952604,1.80078
2023-01-01T13:05:12Z,13.40459,7.582283,0.005789777,98.72561,0,1156,1.6856,8.589443,5.7428,43690,0.4052844,996.2364,2.894888e-05,3.665,994.4356,0,88.9013368058,7.616,99.61654,4.165,4.04474823529,1.80078
2023-01-01T13:20:11Z,13.40513,7.92231,0.01013211,98.86307,0,1156,4.9588,8.589443,5.3508,43690,0.7092477,996.2364,5.066055e-05,4.88,994.4356,0,97.6280473571,7.956,98.51069,2.45,2.79178224852,1.80078
2023-01-01T13:35:10Z,13.39329,7.988941,0.01254452,98.89452,0,1156,2.0776,8.677555,4.8608,43690,0.8781162,996.2364,6.272259e-05,2.881,994.4356,0,92.4090540008,8.12,83.74766,3.5672,3.30578934911,1.80078
2023-01-01T13:50:09Z,13.39262,8.222477,0.00675474,98.92051,0,1156,0.9995999,8.810856,3.7828,43690,0.4728318,996.2364,3.37737e-05,2.097,994.4356,0,95.1886913619,8.29,140.5634,1.7248,1.85828875444,1.80078
2023-01-01T14:05:09Z,13.39201,8.084404,0.02219415,98.91552,0,1156,3.1752,8.944149,4.214,43690,1.55359,996.256,0.0001109707,4.214,994.4552,0,95.5542421247,8.189999,96.30445,2.7636,2.7132662716,1.80078
2023-01-01T14:20:09Z,13.39195,8.457329,0.008684666,99.01707,0,1156,2.9596,9.011929,4.2728,43690,0.6079266,996.256,4.342333e-05,4.273,994.4552,0,93.7341656302,8.46,106.4885,3.7044,3.64548402367,1.80078
2023-01-01T14:35:14Z,13.39195,8.524937,0.02026422,99.05055,0,1156,3.5084,9.122631,4.5668,43690,1.418495,996.256,0.0001013211,4.312,994.4552,0,92.4599607287,8.559999,96.73722,3.6456,3.646,1.80078
2023-01-01T14:50:12Z,13.38643,8.660576,0.02846641,99.11837,0,1156,2.6264,9.258182,3.9004,43690,1.992648,996.256,0.000142332,2.626,994.4552,0,92.8119192988,8.76,88.71992,2.6852,2.83759289941,1.80078
2023-01-01T15:05:14Z,13.37538,8.965763,0.07623207,99.15228,0,1156,2.7048,9.436665,3.724,43690,5.336245,994.3746,0.0003811604,3.391,992.5738,0,92.2110106981,8.86,88.16617,3.136,3.05610117647,1.80078
2023-01-01T15:20:15Z,13.36434,9.203133,0.1514992,99.15228,0,1156,2.842,9.705517,3.2536,43690,10.60494,994.3746,0.0007574958,3.254,992.5738,0,93.2429914198,9.17,93.02951,2.8322,2.79597721519,1.80078
2023-01-01T15:35:13Z,13.35882,9.406594,0.1177181,99.28792,0,1156,0.0196,10.08733,2.94,43690,8.240266,994.3746,0.0005885904,1.098,992.5738,0,122.478565692,9.51,215.1909,1.9012,1.72743845577,1.80078
2023-01-01T15:50:13Z,13.35329,9.474411,0.1041951,99.18618,0,1156,1.1956,10.42622,1.666,43690,7.293656,994.3746,0.0005209754,1.411,992.5738,0,108.042299908,9.639999,234.3554,0.9604,0.869503347651,1.80078
2023-01-01T16:05:13Z,13.34638,8.791069,0.1051582,99.14182,0,1156,0.0196,10.69733,1.372,43690,7.361076,993.614,0.0005257911,0.882,991.8132,0,242.599705551,9.13,212.5202,0.686,0.663863517647,1.80078
2023-01-01T16:20:13Z,13.33864,9.122394,0.1514535,99.12622,0,1156,0.3136,10.87807,1.8032,43690,10.60175,993.614,0.0007572676,1.803,991.8132,0,248.004202074,9.16,203.2199,0.1862,0.393498818824,1.80078
2023-01-01T16:35:15Z,13.33775,8.407414,0.07910046,99.01824,0,1156,1.5876,11.03847,1.6464,43690,5.537032,993.614,0.0003955022,1.529,991.8132,0,218.400431548,8.58,212.1844,1.1564,1.08583999294,1.80078
2023-01-01T16:50:14Z,13.35429,7.152775,0.06559587,98.81405,0,1156,2.9792,10.74251,3.0184,43690,4.591711,993.614,0.0003279794,3.018,991.8132,0,224.19767897,7.255,204.7939,1.9404,1.97380118284,1.80078
2023-01-01T17:05:13Z,13.36892,7.742538,0.05209857,99.01152,0,1156,6.076,10.22288,7.0756,43690,3.6469,993.3207,0.0002604928,6.782001,991.5199,0,220.411663025,7.844,220.0429,5.3704,5.22533501911,1.80078
2023-01-01T17:20:13Z,13.3864,7.371922,0.0477631,98.98256,0,1156,5.8996,9.728107,7.742,43690,3.343416,993.3207,0.0002388154,7.291,991.5199,0,230.511038001,7.440001,223.7857,6.468,6.44690112941,1.80078
2023-01-01T17:35:14Z,13.39195,7.270252,0.1524639,98.94878,0,1156,4.6256,9.278515,7.938,43690,10.67247,993.3207,0.0007623194,6.311,991.5199,0,228.621725201,7.304,238.7372,6.3112,6.25136226471,1.80078
2023-01-01T17:50:16Z,13.39747,7.236343,0.05500286,98.98269,0,1156,4.0376,9.05711,5.9976,43690,3.8502,993.3207,0.0002750143,4.861,991.5199,0,238.077989472,7.270001,233.0312,4.6158,4.53472727273,1.80078
2023-01-01T18:05:16Z,13.39747,7.4067,0.06272256,99.05219,0,1156,3.234,8.901226,7.252,43690,4.390579,993.642,0.0003136128,2.136,991.8412,0,249.914065625,7.440001,249.0459,3.6554,3.45767058706,1.80078
2023-01-01T18:20:16Z,13.39195,7.271354,0.08588166,99.0189,0,1156,1.7248,8.901226,5.194,43690,6.011716,993.642,0.0004294083,5.39,991.8412,0,311.819990899,7.305,7.006265,2.5676,2.68969647,1.80078
2023-01-01T18:35:16Z,13.3975,6.15131,0.1399196,98.81332,0,1156,4.8216,8.790523,7.5068,43690,9.794369,993.642,0.0006995978,5.958,991.8412,0,8.05539550783,6.355,36.8122,3.234,3.24587529412,1.80078
2023-01-01T18:50:16Z,13.41599,5.275524,0.0743021,98.62263,0,1156,3.626,8.413227,6.6836,43690,5.201148,993.642,0.0003715105,6.292,991.8412,0,359.582278023,5.478,32.19378,3.3124,3.24345411706,1.80078
2023-01-01T19:05:15Z,13.42808,4.804546,0.07672476,98.49538,0,1156,3.4104,7.904896,7.898799,43690,5.370733,995.36,0.0003836238,7.899,993.5592,0,27.1554771661,4.94,23.43098,3.8318,3.90247527647,1.80078
2023-01-01T19:20:16Z,13.44617,4.572376,0.02413165,98.3713,0,1156,2.94,7.421414,7.271599,43690,1.689215,995.36,0.0001206582,6.213,993.5592,0,31.0420489298,4.674,313.8628,4.508,4.49739292353,1.80078
2023-01-01T19:35:16Z,13.45726,4.233372,0.0164099,98.20216,0,1156,3.8612,6.940197,9.898,43690,1.148693,995.36,8.204948e-05,8.389999,993.5592,0,27.7331211369,4.403,31.04443,4.6648,4.77156232353,1.80078
2023-01-01T19:50:16Z,13.47383,3.826317,0.0120661,97.99862,0,1156,4.214,6.461231,10.3292,43690,0.8446274,995.36,6.033052e-05,7.82,993.5592,0,30.1258823369,3.928,60.71607,5.3214,5.33408231176,1.80078
2023-01-01T20:05:17Z,13.48488,3.59092,0.006757019,97.83363,0,1156,5.8604,6.025196,10.1332,43690,0.4729913,997.5622,3.378509e-05,9.189999,995.7614,0,35.0558318347,3.658,35.81477,5.488,5.54080464706,1.80078
2023-01-01T20:20:18Z,13.49868,3.361854,0.00337851,97.51327,0,1156,6.1348,5.614014,10.1136,43690,0.2364957,997.5622,1.689255e-05,10.11,995.7614,0,35.9759954448,3.429,36.8094,6.174,6.21170103529,1.80078
2023-01-01T20:35:19Z,13.50598,2.9249,0.00144806,97.11546,0,1156,6.8404,5.202831,11.5836,43690,0.1013642,997.5622,7.240297e-06,8.86,995.7614,0,33.6735823115,2.959,39.67991,5.8506,5.9966776,1.80078
2023-01-01T20:50:20Z,13.51708,2.483871,0.0004827248,96.57276,0,1156,3.9004,4.793907,8.0752,43690,0.03379073,997.5622,2.413624e-06,7.330001,995.7614,0,36.7891283984,2.586,48.25686,5.3802,5.4754329,1.80078
2023-01-01T21:05:19Z,13.53366,2.144543,0.0,96.02984,0,1156,4.3512,4.384979,9.309999,43690,0.0,998.9435,0.0,9.189999,997.1427,0,37.0550801007,2.212,50.76246,6.1152,6.12934901775,1.80078
2023-01-01T21:20:18Z,13.54664,1.811661,0.0,95.23013,0,1156,6.7424,3.978317,11.8972,43690,0.0,998.9435,0.0,9.33,997.1427,0,39.9527590507,1.913,43.08366,6.174,6.30029813609,1.80078
2023-01-01T21:35:22Z,13.55254,1.744431,0.0,94.45101,0,1156,6.9384,3.591984,12.0344,43690,0.0,998.9435,0.0,11.52,997.1427,0,37.9098491565,1.744,19.66264,5.5076,5.91700935882,1.80078
2023-01-01T21:50:21Z,13.55955,1.747852,0.0,93.54234,0,1156,6.3504,3.291504,10.2116,43690,0.0,998.9435,0.0,8.72,997.1427,0,33.0842480906,1.816,23.01393,5.8212,6.02427447337,1.80078
2023-01-01T22:05:21Z,13.56588,1.649521,0.0,92.93919,0,1156,5.0764,3.079136,10.4664,43690,0.0,1000.652,0.0,7.722001,998.8516,0,30.701027838,1.717,36.65667,5.488,5.6805206568,1.80078
2023-01-01T22:20:21Z,13.57142,1.615738,0.0,92.6001,0,1156,5.586,2.887096,8.036,43690,0.0,1000.652,0.0,7.526001,998.8516,0,31.87884388,1.65,22.24473,5.0176,4.9809514497,1.80078
2023-01-01T22:35:22Z,13.57695,1.581791,0.0,92.19277,0,1156,6.4092,2.735729,9.760799,43690,0.0,1000.652,0.0,8.21,998.8516,0,29.0746785388,1.718,19.32858,4.9196,5.09831949704,1.80078
2023-01-01T22:50:21Z,13.58248,1.581791,0.0,91.95516,0,1156,5.9584,2.609211,10.3684,43690,0.0,1000.652,0.0,5.743,998.8516,0,31.1417219536,1.718,24.84758,5.0568,5.14992895266,1.80078
2023-01-01T23:05:21Z,13.58801,1.615738,0.0,91.71755,0,1156,4.1748,2.480434,8.2712,43690,0.0,1002.941,0.0,4.528,1001.14,0,31.1186312601,1.752,40.07908,4.0964,4.2367313432,1.80078
2023-01-01T23:20:22Z,13.58801,1.717567,0.0,91.58177,0,1156,2.3324,2.417175,8.134,43690,0.0,1002.941,0.0,8.13,1001.14,0,24.5520662406,1.819,29.90868,3.4692,3.55850177515,1.80078
2023-01-01T23:35:23Z,13.58248,1.615738,0.0,91.37811,0,1156,2.7832,2.417175,6.174,43690,0.0,1002.941,0.0,6.174,1001.14,0,22.5599094484,1.684,49.83977,2.8224,2.96168757278,1.80078
2023-01-01T23:50:25Z,13.58248,1.479958,0.0,91.00472,0,1156,3.5476,2.437508,8.427999,43690,0.0,1002.941,0.0,8.429999,1001.14,0,29.5072440494,1.616,25.667,3.5476,3.66682365621,1.80078
2023-01-02T00:05:22Z,13.58248,1.581791,0.0,90.49556,0,1156,1.9404,2.394581,6.5268,43690,0.0,1004.163,0.0,3.332,1002.362,0,16.7660153992,1.582,319.3553,3.0772,3.06212307574,1.80078
2023-01-02T00:20:23Z,13.58248,1.446014,0.0,90.69922,0,1156,1.96,2.351654,4.6452,43690,0.0,1004.163,0.0,4.645,1002.362,0,345.018164719,1.514,317.0175,1.4112,1.69401646412,1.80078
2023-01-02T00:35:24Z,13.58248,1.412071,0.0,90.32584,0,1156,2.0384,2.374249,6.6836,43690,0.0,1004.163,0.0,4.841,1002.362,0,348.105055985,1.514,316.8247,2.2246,2.26967999765,1.80078
2023-01-02T00:50:25Z,13.57695,1.513905,0.0,90.15611,0,1156,1.1564,2.374249,5.1548,43690,0.0,1004.163,0.0,3.45,1002.362,0,334.694075429,1.616,277.9989,1.862,1.86779881243,1.80078
2023-01-02T01:05:22Z,13.57695,1.547848,0.0,90.02034,0,1156,3.1752,2.394581,5.9192,43690,0.0,1005.874,0.0,3.567,1004.073,0,312.365201745,1.582,318.8492,2.5186,2.58673333036,1.80078
2023-01-02T01:20:23Z,13.58248,1.479958,0.0,90.15611,0,1156,3.43,2.374249,6.389599,43690,0.0,1005.874,0.0,5.821,1004.073,0,324.94523306,1.48,14.77359,1.9992,2.26582957751,1.80078
2023-01-02T01:35:26Z,13.58248,1.378124,0.0,90.224,0,1156,3.6848,2.331322,5.0176,43690,0.0,1005.874,0.0,3.332,1004.073,0,306.376519581,1.48,318.0539,1.96,2.0774840213,1.80078
2023-01-02T01:50:27Z,13.58248,1.378124,0.0,89.78272,0,1156,1.8816,2.245472,5.194,43690,0.0,1005.874,0.0,2.94,1004.073,0,8.31463048749,1.412,293.5437,2.0188,2.16643786686,1.80078
2023-01-02T02:05:28Z,13.59354,1.344181,0.0,90.02034,0,1156,2.2736,2.139286,3.6456,43690,0.0,1007.177,0.0,2.901,1005.377,0,320.722161794,1.446,274.9622,1.6072,1.67377041006,1.80078
2023-01-02T02:20:27Z,13.59354,1.344181,0.0,90.42766,0,1156,1.0584,2.076027,3.6848,43690,0.0,1007.177,0.0,2.43,1005.377,0,288.048785114,1.48,286.2654,1.47,1.54062958166,1.80078
2023-01-02T02:35:28Z,13.59354,1.378124,0.0,90.63134,0,1156,2.4696,2.076027,3.4888,43690,0.0,1007.177,0.0,2.117,1005.377,0,280.443253332,1.446,287.4704,1.8228,1.83029411412,1.80078
2023-01-02T02:50:30Z,13.58248,1.378124,0.0,91.03866,0,1156,2.8812,2.096359,3.1556,43690,0.0,1007.177,0.0,3.156,1005.377,0,273.371316544,1.514,294.2185,1.8326,1.77806587706,1.80078
2023-01-02T03:05:30Z,13.58248,1.446014,0.0,91.20839,0,1156,1.0976,2.139286,2.548,43690,0.0,1007.34,0.0,2.097,1005.54,0,268.71736881,1.582,279.9992,1.274,1.32276940412,1.80078
2023-01-02T03:20:25Z,13.58248,1.412071,0.0,91.24234,0,1156,0.7448,2.182213,2.3912,43690,0.0,1007.34,0.0,1.803,1005.54,0,282.451049541,1.48,291.1819,1.274,1.30148638047,1.80078
2023-01-02T03:35:27Z,13.58248,1.479958,0.0,91.10655,0,1156,1.6464,2.225136,2.2736,43690,0.0,1007.34,0.0,1.862,1005.54,0,301.97227362,1.616,300.7015,1.127,1.17968940471,1.80078
2023-01-02T03:50:28Z,13.58248,1.547848,0.0,90.73317,0,1156,1.862,2.245472,2.4108,43690,0.0,1007.34,0.0,1.921,1005.54,0,310.222330786,1.718,291.688,1.4308,1.41062352471,1.80078
2023-01-02T04:05:28Z,13.58248,1.581791,0.0,90.56345,0,1156,0.784,2.288395,2.5872,43690,0.0,1008.237,0.0,2.587,1006.436,0,297.752514203,1.65,301.3522,1.47,1.50470352294,1.80078
2023-01-02T04:20:30Z,13.58248,1.581791,0.0,90.5295,0,1156,1.1172,2.310989,2.2736,43690,0.0,1008.237,0.0,1.862,1006.436,0,302.560912985,1.65,303.0875,1.3818,1.36462117059,1.80078
2023-01-02T04:35:29Z,13.58248,1.547848,0.0,90.5295,0,1156,1.666,2.331322,2.6852,43690,0.0,1008.237,0.0,2.45,1006.436,0,314.084825804,1.65,324.0549,1.3524,1.42001419704,1.80078
2023-01-02T04:50:28Z,13.58248,1.412071,0.0,90.69922,0,1156,1.6464,2.288395,2.254,43690,0.0,1008.237,0.0,1.94,1006.436,0,341.192065448,1.582,305.9795,0.588,0.703280469231,1.80078
2023-01-02T05:05:32Z,13.58248,1.479958,0.0,90.97078,0,1156,2.0972,2.245472,2.8224,43690,0.0,1009.133,0.0,1.372,1007.332,0,298.029403002,1.514,330.8753,0.9995999,1.01666352118,1.80078
2023-01-02T05:20:30Z,13.58801,1.378124,0.0,91.446,0,1156,0.5292,2.202545,2.156,43690,0.0,1009.133,0.0,1.0,1007.332,0,295.892386575,1.446,276.1432,0.9015999,0.90879052071,1.80078
2023-01-02T05:35:33Z,13.58248,1.310238,0.0,91.92122,0,1156,0.0196,2.139286,2.744,43690,0.0,1009.133,0.0,1.058,1007.332,0,292.739295947,1.378,238.2331,0.8428,0.919701166471,1.80078
2023-01-02T05:50:31Z,13.58801,1.276295,0.0,92.15883,0,1156,0.4312,2.076027,1.666,43690,0.0,1009.133,0.0,0.568,1007.332,0,16.9805960795,1.412,8.170058,0.49,0.613514788166,1.80078
2023-01-02T06:05:34Z,13.59354,1.276295,0.0,92.29461,0,1156,0.686,2.010509,1.2348,43690,0.0,1008.807,0.0,0.784,1007.006,0,277.005344312,1.344,307.6184,0.5292,0.499454110588,1.80078
2023-01-02T06:20:32Z,13.59354,1.242348,0.0,92.6001,0,1156,1.4308,1.94725,1.5288,43690,0.0,1008.807,0.0,1.509,1007.006,0,284.246758938,1.344,301.3282,0.9408,0.995656781657,1.80078
2023-01-02T06:35:31Z,13.59354,1.174461,0.0,92.80377,0,1156,2.646,1.883991,2.646,43690,0.0,1008.807,0.0,2.372,1007.006,0,300.135288691,1.208,304.0997,1.2544,1.36828874793,1.80078
2023-01-02T06:50:30Z,13.59906,1.072628,0.0,92.6001,0,1156,0.1372,1.712288,2.744,43690,0.0,1008.807,0.0,0.529,1007.006,0,345.443145184,1.174,44.29666,0.7252,0.915285202367,1.80078
2023-01-02T07:05:30Z,13.60469,0.7682724,0.0,92.6027,0,1156,0.9995999,1.499916,1.9796,43690,0.0,1009.947,0.0,1.47,1008.147,0,45.4742323182,0.937,73.7977,0.784,0.74491596213,1.80078
2023-01-02T07:20:30Z,13.61626,0.8352509,0.0,92.39697,0,1156,3.5868,1.350807,4.2336,43690,0.0,1009.947,0.0,4.234,1008.147,0,49.506401752,0.9030001,50.99687,2.4108,2.41091597574,1.80078
2023-01-02T07:35:35Z,13.61581,0.7350807,0.0,92.16312,0,1156,2.352,1.201698,4.3512,43690,0.0,1009.947,0.0,2.489,1008.147,0,47.6601406661,0.735,30.85003,2.6656,2.65360941176,1.80078
2023-01-02T07:50:33Z,13.62249,0.6033936,0.0,92.20638,0,1156,1.0584,1.118103,2.0188,43690,0.0,1009.947,0.0,1.568,1008.147,0,45.4951987936,0.739,31.26292,1.1368,1.12369466391,1.80078